Change the Weather History Date:

Wednesday, April 3, 2013

  Actual Average (KNYG) Record (KNYG)
Temperature  
Mean Temperature 40 °F -  
Max Temperature 56 °F 60 °F 82 °F (2003)
Min Temperature 24 °F 40 °F 30 °F (2013)
Degree Days  
Heating Degree Days 25    
Moisture  
Dew Point 16 °F    
Average Humidity 40    
Maximum Humidity 81    
Minimum Humidity 17    
Precipitation  
Precipitation 0.00 in - - ()
Sea Level Pressure  
Sea Level Pressure 30.30 in    
Wind  
Wind Speed 6 mph (NW)    
Max Wind Speed 20 mph    
Max Gust Speed 26 mph    
Visibility 10 miles    
Events      
Averages and records for this station are not official NWS values.
T = Trace of Precipitation, MM = Missing Value Source: NWS Daily Summary

Daily Weather History Graph

Daily Weather History Graph

Search for Another Location

Airport or City:

Trip Planner

Search our weather history database for the weather conditions in past years. The results will help you decide how hot, cold, wet, or windy it might be!

Date:

Astronomy

Apr. 03, 2013 Rise Set
Actual Time 6:51 AM EDT 7:35 PM EDT
Civil Twilight 6:24 AM EDT 8:02 PM EDT
Nautical Twilight 5:53 AM EDT 8:33 PM EDT
Astronomical Twilight 5:20 AM EDT 9:06 PM EDT
Moon 2:25 AM EDT (4/3) 12:50 PM EDT (4/3)
Length of Visible Light 13h 37m
Length of Day
12h 43m
Last Quarter, 45% of the Moon is Illuminated
Apr 3
Last Quarter
Apr 10
New
Apr 18
First Quarter
Apr 25
Full
May 2
Last Quarter

Hourly Weather History & Observations

Time (EDT) Temp. Windchill Dew Point Humidity Pressure Visibility Wind Dir Wind Speed Gust Speed Precip Events Conditions
12:15 AM 29.7 °F - 18.5 °F 63% 30.23 in 10.0 mi Calm Calm - N/A   Clear
12:35 AM 29.7 °F - 19.9 °F 67% 30.23 in 10.0 mi Calm Calm - N/A   Clear
12:55 AM 29.5 °F - 19.0 °F 65% 30.23 in 10.0 mi Calm Calm - N/A   Clear
1:15 AM 28.6 °F - 19.9 °F 70% 30.24 in 10.0 mi Calm Calm - N/A   Clear
1:35 AM 27.9 °F - 20.5 °F 74% 30.24 in 10.0 mi Calm Calm - N/A   Clear
1:55 AM 27.3 °F 23.4 °F 19.4 °F 72% 30.25 in 10.0 mi NW 3.5 mph - N/A   Clear
2:15 AM 27.9 °F - 19.4 °F 71% 30.25 in 10.0 mi Calm Calm - N/A   Clear
2:35 AM 27.0 °F - 20.1 °F 75% 30.25 in 10.0 mi Calm Calm - N/A   Clear
2:55 AM 26.6 °F - 19.6 °F 75% 30.25 in 10.0 mi Calm Calm - N/A   Clear
3:15 AM 25.5 °F 21.3 °F 19.2 °F 77% 30.25 in 10.0 mi NW 3.5 mph - N/A   Clear
3:35 AM 24.8 °F 14.0 °F 18.5 °F 77% 30.25 in 10.0 mi NNW 11.5 mph - N/A   Clear
3:55 AM 34.0 °F 24.6 °F 18.7 °F 54% 30.25 in 10.0 mi NNW 13.8 mph - N/A   Clear
4:15 AM 36.1 °F 27.3 °F 17.1 °F 46% 30.25 in 10.0 mi NNW 13.8 mph - N/A   Clear
4:35 AM 35.6 °F 26.6 °F 16.5 °F 46% 30.25 in 10.0 mi NNW 13.8 mph - N/A   Clear
4:55 AM 36.5 °F 28.7 °F 15.6 °F 43% 30.26 in 10.0 mi NNW 11.5 mph - N/A   Clear
5:15 AM 35.8 °F 29.4 °F 15.1 °F 43% 30.27 in 10.0 mi NNW 8.1 mph - N/A   Clear
5:35 AM 32.2 °F 27.7 °F 16.5 °F 53% 30.27 in 10.0 mi NNW 4.6 mph - N/A   Clear
5:55 AM 30.2 °F 26.7 °F 21.4 °F 70% 30.27 in 10.0 mi WNW 3.5 mph - N/A   Clear
6:15 AM 29.1 °F - 19.6 °F 68% 30.28 in 10.0 mi Calm Calm - N/A   Clear
6:35 AM 28.4 °F - 20.8 °F 73% 30.29 in 10.0 mi Calm Calm - N/A   Clear
6:55 AM 27.0 °F - 21.7 °F 81% 30.30 in 10.0 mi Calm Calm - N/A   Clear
7:15 AM 28.9 °F - 19.4 °F 68% 30.31 in 10.0 mi Calm Calm - N/A   Clear
7:35 AM 29.3 °F - 20.5 °F 70% 30.31 in 10.0 mi Calm Calm - N/A   Clear
7:55 AM 32.2 °F - 18.9 °F 58% 30.31 in 10.0 mi Calm Calm - N/A   Clear
8:15 AM 32.5 °F - 21.7 °F 64% 30.31 in 10.0 mi Calm Calm - N/A   Clear
8:35 AM 37.6 °F - 18.7 °F 47% 30.32 in 10.0 mi Calm Calm - N/A   Clear
8:55 AM 39.9 °F 37.8 °F 19.8 °F 44% 30.32 in 10.0 mi WSW 3.5 mph - N/A   Clear
9:15 AM 42.8 °F 40.1 °F 18.0 °F 37% 30.33 in 10.0 mi West 4.6 mph - N/A   Clear
9:35 AM 44.4 °F 41.2 °F 17.2 °F 34% 30.31 in 10.0 mi SW 5.8 mph - N/A   Clear
9:55 AM 45.9 °F 40.8 °F 15.8 °F 30% 30.32 in 10.0 mi WNW 10.4 mph - N/A   Clear
10:15 AM 45.5 °F 39.6 °F 13.3 °F 27% 30.33 in 10.0 mi WNW 12.7 mph 19.6 mph N/A   Clear
10:35 AM 46.9 °F - 14.7 °F 27% 30.33 in 10.0 mi WSW 8.1 mph - N/A   Clear
10:55 AM 47.3 °F - 15.1 °F 28% 30.31 in 10.0 mi WNW 6.9 mph 18.4 mph N/A   Clear
11:15 AM 48.4 °F - 14.0 °F 25% 30.31 in 10.0 mi NW 16.1 mph 19.6 mph N/A   Clear
11:35 AM 48.4 °F - 12.7 °F 24% 30.31 in 10.0 mi WNW 4.6 mph 9.2 mph N/A   Clear
11:55 AM 50.4 °F - 15.6 °F 25% 30.30 in 10.0 mi NW 11.5 mph - N/A   Clear
12:15 PM 50.5 °F - 13.6 °F 23% 30.29 in 10.0 mi West 9.2 mph 17.3 mph N/A   Clear
12:35 PM 50.7 °F - 14.5 °F 24% 30.28 in 10.0 mi NNW 9.2 mph 21.9 mph N/A   Clear
12:55 PM 50.9 °F - 13.6 °F 23% 30.28 in 10.0 mi WNW 16.1 mph 23.0 mph N/A   Clear
1:15 PM 51.1 °F - 12.2 °F 21% 30.26 in 10.0 mi NNW 10.4 mph 19.6 mph N/A   Clear
1:35 PM 52.5 °F - 13.1 °F 21% 30.25 in 10.0 mi North 8.1 mph 21.9 mph N/A   Clear
1:55 PM 52.2 °F - 13.1 °F 21% 30.25 in 10.0 mi West 13.8 mph 21.9 mph N/A   Clear
2:15 PM 53.6 °F - 14.0 °F 21% 30.25 in 10.0 mi West 15.0 mph 21.9 mph N/A   Clear
2:35 PM 54.0 °F - 14.4 °F 21% 30.24 in 10.0 mi NNW 15.0 mph 26.5 mph N/A   Clear
2:55 PM 54.0 °F - 15.1 °F 22% 30.24 in 10.0 mi NNW 12.7 mph 20.7 mph N/A   Clear
3:15 PM 54.7 °F - 15.6 °F 21% 30.24 in 10.0 mi West 13.8 mph 23.0 mph N/A   Clear
3:35 PM 54.5 °F - 13.1 °F 19% 30.23 in 10.0 mi NW 13.8 mph 19.6 mph N/A   Clear
3:55 PM 55.0 °F - 13.5 °F 19% 30.23 in 10.0 mi West 10.4 mph 23.0 mph N/A   Clear
4:15 PM 54.9 °F - 12.0 °F 18% 30.23 in 10.0 mi West 15.0 mph - N/A   Clear
4:35 PM 55.4 °F - 11.8 °F 18% 30.24 in 10.0 mi West 13.8 mph 17.3 mph N/A   Clear
4:55 PM 56.3 °F - 11.5 °F 17% 30.24 in 10.0 mi NW 19.6 mph 23.0 mph N/A   Clear
5:15 PM 55.4 °F - 10.4 °F 17% 30.26 in 10.0 mi NW 15.0 mph 23.0 mph N/A   Clear
5:35 PM 55.0 °F - 9.9 °F 17% 30.26 in 10.0 mi NW 16.1 mph 23.0 mph N/A   Clear
5:55 PM 54.5 °F - 10.9 °F 18% 30.27 in 10.0 mi NW 12.7 mph 16.1 mph N/A   Clear
6:15 PM 53.1 °F - 12.7 °F 20% 30.28 in 10.0 mi NNW 16.1 mph 21.9 mph N/A   Clear
6:35 PM 51.4 °F - 13.8 °F 22% 30.29 in 10.0 mi North 19.6 mph 25.3 mph N/A   Clear
6:55 PM 49.5 °F - 14.9 °F 25% 30.31 in 10.0 mi North 16.1 mph 24.2 mph N/A   Clear
7:15 PM 48.6 °F - 14.5 °F 26% 30.33 in 10.0 mi North 15.0 mph 24.2 mph N/A   Clear
7:35 PM 46.9 °F - 14.0 °F 27% 30.33 in 10.0 mi North 11.5 mph 20.7 mph N/A   Clear
7:55 PM 45.5 °F 38.9 °F 13.6 °F 28% 30.35 in 10.0 mi North 15.0 mph 18.4 mph N/A   Clear
8:15 PM 45.0 °F 40.1 °F 12.7 °F 27% 30.35 in 10.0 mi North 9.2 mph 16.1 mph N/A   Clear
8:35 PM 44.6 °F 39.7 °F 12.0 °F 27% 30.35 in 10.0 mi North 9.2 mph 17.3 mph N/A   Clear
8:55 PM 43.7 °F 39.1 °F 12.0 °F 28% 30.36 in 10.0 mi North 8.1 mph 16.1 mph N/A   Clear
9:15 PM 43.5 °F 37.1 °F 12.2 °F 28% 30.38 in 10.0 mi North 12.7 mph - N/A   Clear
9:35 PM 42.4 °F 36.5 °F 12.4 °F 29% 30.39 in 10.0 mi North 10.4 mph - N/A   Clear
9:55 PM 42.3 °F 35.1 °F 13.1 °F 31% 30.40 in 10.0 mi North 13.8 mph 19.6 mph N/A   Clear
10:15 PM 41.9 °F 36.3 °F 14.2 °F 33% 30.40 in 10.0 mi NNE 9.2 mph - N/A   Clear
10:35 PM 40.8 °F 34.1 °F 15.6 °F 36% 30.40 in 10.0 mi North 11.5 mph 17.3 mph N/A   Clear
10:55 PM 39.4 °F 33.2 °F 16.3 °F 39% 30.41 in 10.0 mi North 9.2 mph - N/A   Clear
11:15 PM 38.3 °F 34.8 °F 17.1 °F 42% 30.43 in 10.0 mi North 4.6 mph - N/A   Clear
11:35 PM 38.3 °F 31.9 °F 18.1 °F 44% 30.43 in 10.0 mi North 9.2 mph - N/A   Clear
11:55 PM 37.4 °F 32.1 °F 17.8 °F 45% 30.43 in 10.0 mi North 6.9 mph - N/A   Clear